Hourly Data Report for September 18, 2017

All times are specified in Local Standard Time (LST). Add 1 hour to adjust for Daylight Saving Time where and when it is observed.

GRAND MANAN SAR CS
NEW BRUNSWICK

44°42'43.400" N
66°48'06.900" W
78.20 m
8101925
71030
XGM

Download Data

Hourly Data (September 2017)
Hourly Data Report for September 18, 2017
Temp Definition
°C
Dew Point Temp Definition
°C
Rel Hum Definition
%
Wind Dir Definition
10's deg

Wind Spd Definition
km/h
Visibility Definition
km
Stn Press Definition
kPa
Hmdx Definition


Wind Chill Definition


Weather Definition


TIME
00:00 13.2 13.0 99 22 6   101.29     LegendNANA
01:00 13.0 12.9 99 22 5   101.32     LegendNANA
02:00 13.0 12.9 100 19 3   101.33     LegendNANA
03:00 12.7 12.6 100 16 3   101.35     LegendNANA
04:00 12.3 12.2 100 17 4   101.32     LegendNANA
05:00 12.0 11.9 100 17 3   101.34     LegendNANA
06:00 12.0 11.9 100 16 5   101.42     LegendNANA
07:00 12.3 12.3 100 15 4   101.42     LegendNANA
08:00 12.9 12.8 100 18 7   101.44     LegendNANA
09:00 13.5 13.4 100 19 8   101.51     LegendNANA
10:00 14.1 14.0 100 18 9   101.52     LegendNANA
11:00 14.5 14.4 100 18 12   101.50     LegendNANA
12:00 14.7 14.5 99 15 6   101.49     LegendNANA
13:00 15.3 14.6 96 13 5   101.46     LegendNANA
14:00 14.4 13.5 94 10 11   101.46     LegendNANA
15:00 14.6 13.4 93 8 9   101.47     LegendNANA
16:00 14.2 13.6 96 10 9   101.48     LegendNANA
17:00 14.4 14.0 98 9 9   101.50     LegendNANA
18:00 14.4 14.1 98 9 4   101.49     LegendNANA
19:00 13.9 13.7 99 6 6   101.48     LegendNANA
20:00 14.0 13.8 99 6 5   101.51     LegendNANA
21:00 14.1 14.0 99 8 5   101.53     LegendNANA
22:00 14.3 14.2 99 7 6   101.53     LegendNANA
23:00 14.3 14.2 99 6 6   101.52     LegendNANA

Notes on Data Quality.

Legend

  • E = Estimated
  • M = Missing
  • NA = Not Available
  • ‡ = Partner data that is not subject to review by the National Climate Archives
Date modified: